Regional Weather Roundup
Issued by NWS Boston, MA

Current Version | Previous Version | Graphics & Text | Print | Product List | Glossary On
Versions: 1 2 3 4 5 6 7 8 9 10 11 12 13 14 15 16 17 18 19 20 21 22 23 24 25 26 27
000 ASUS41 KBOX 220210 RWRBOX REGIONAL WEATHER ROUNDUP NATIONAL WEATHER SERVICE TAUNTON MA 900 PM EST TUE NOV 21 2017 NOTE: "FAIR" INDICATES FEW OR NO CLOUDS BELOW 12,000 FEET WITH NO SIGNIFICANT WEATHER AND/OR OBSTRUCTIONS TO VISIBILITY. MAZALL-220300- EASTERN MASSACHUSETTS CITY SKY/WX TMP DP RH WIND PRES REMARKS BOSTON PTCLDY 51 40 65 SW16 30.00F BEVERLY CLEAR 49 37 63 SW6 30.00S LAWRENCE CLEAR 49 35 58 S5 30.02R BEDFORD CLEAR 49 38 65 SW10 29.99S BLUE HILL NOT AVBL NORWOOD CLEAR 54 42 64 SW8 30.02R MARSHFIELD PTCLDY 55 43 62 SW10G29 30.01S PLYMOUTH PTCLDY 57 42 57 SW22G33 30.03R TAUNTON CLOUDY 56 43 61 SW10G21 30.03S NEW BEDFORD CLOUDY 57 43 59 SW16G28 30.04R $$ MAZALL-220300- CAPE COD AND THE ISLANDS CITY SKY/WX TMP DP RH WIND PRES REMARKS FALMOUTH CLOUDY 57 45 62 SW23G37 30.05S HYANNIS CLOUDY 56 44 64 SW17G25 30.04S CHATHAM CLOUDY 52 46 80 SW8G18 30.08R PROVINCETOWN CLOUDY 54 44 69 SW16 30.04F NANTUCKET CLOUDY 56 48 74 SW22G31 30.08F MARTHAS VNYRD CLOUDY 57 46 66 SW18G33 30.07R $$ MAZALL-220300- CENTRAL AND WESTERN MASSACHUSETTS CITY SKY/WX TMP DP RH WIND PRES REMARKS WORCESTER CLEAR 46 34 62 SW18G25 29.98S FITCHBURG CLOUDY 51 36 56 SW8 29.99S ORANGE PTCLDY 47 37 68 S5 29.99R SPRINGFIELD MOCLDY 46 37 69 S6 30.00R WESTFIELD PTCLDY 46 37 71 S9 30.00S NORTH ADAMS PTCLDY 50 27 40 VRB3 29.97R PITTSFIELD CLEAR 48 27 44 SW14G24 29.95R $$ RIZALL-220300- RHODE ISLAND CITY SKY/WX TMP DP RH WIND PRES REMARKS PROVIDENCE CLOUDY 55 44 66 SW15 30.05R NEWPORT CLOUDY 56 46 69 SW9G17 30.05R BLOCK ISLAND PTCLDY 57 50 77 SW21G29 30.07R SMITHFIELD PTCLDY 50 42 74 SW9G20 30.03R WESTERLY PTCLDY 56 48 74 SW12G21 30.07R $$ CTZALL-220300- CONNECTICUT CITY SKY/WX TMP DP RH WIND PRES REMARKS BRADLEY INTL CLEAR 48 38 68 S12 30.02S HARTFORD CLEAR 49 41 74 S7 30.04R BRIDGEPORT CLEAR 54 43 66 SW15 30.04S DANBURY CLEAR 46 37 71 SW7 30.04S GROTON CLOUDY 56 46 69 SW16 30.05S NEW HAVEN CLEAR 54 44 69 SW10G18 30.05S CHESTER FAIR 52 43 71 VRB7G16 30.05R MERIDEN CLEAR 47 40 76 S5 30.05R WILLIMANTIC CLEAR 50 41 71 S9 30.05R OXFORD CLEAR 45 39 79 S6 30.03F $$ MEZ002-015-021-024-NHZ003-005-008-011-012-014-VTZ005-008-220300- NORTHERN NEW ENGLAND CITY SKY/WX TMP DP RH WIND PRES REMARKS PORTLAND ME CLEAR 48 36 63 S8 29.97S BANGOR ME CLOUDY 49 37 63 S10 29.95R CONCORD NH CLOUDY 45 34 65 S7 29.98R MANCHESTER NH MOCLDY 47 34 60 S5 29.98R NASHUA NH PTCLDY 41 35 79 CALM 30.00R PORTSMOUTH NH MOCLDY 48 34 59 S7 29.98R JAFFREY NH MOCLDY 47 37 68 VRB6 29.98R KEENE NH CLOUDY 47 36 65 S12 29.98R BURLINGTON VT CLEAR 49 24 37 S16 29.87R MT. WASHINGTON PTCLDY 25 16 68 W55 N/A WCI 3 $$ NYZ052-076-220300- EASTERN NEW YORK CITY SKY/WX TMP DP RH WIND PRES REMARKS ALBANY PTCLDY 50 28 42 S17G23 29.95R NEW YORK CITY CLOUDY 52 38 58 S6 30.05S $$ ANZALL-220300- MARINE OBSERVATIONS STATION/POSITION TIME TEMP WIND PRES VSBY WAVE AIR SEA DIR/SP/G HT/PER (UTC) (F) (DEG/KT/KT) (MB) (MI) (FT/S) BOSTON BUOY 0150 54 50 200/ 12/ 16 1015.3R 2/ 4 BUZZARDS BAY 0100 58 210/ 27/ 29 1017.5F NANTUCKET SOUND 0150 55 50 220/ 19/ 23 1017.7F 2/ 3 MASS BAY-STELLWA 0104 52 49 200/ 14/ 16 1015.5S 3/ 5 ISLE OF SHOALS 0100 50 210/ 19/ 21 1015.3R S OF BLOCK IS NOT AVBL $$ ......................KEY......................... SKY/WX - SKY CONDITION/PRESENT WEATHER TMP - TEMPERATURE IN FAHRENHEIT DWPT - DEWPOINT IN FAHRENHEIT RH - RELATIVE HUMIDITY IN PERCENT WIND - DIRECTION AND SPEED IN MPH PRES - MEAN SEA LEVEL PRESSURE IN INCHES OF HG WCI - WIND CHILL INDEX VSB - VISIBILITY IN MILES HX - HEAT INDEX TC - TEMPERATURE IN CELSIUS VRB - VARIABLE WIND DIRECTION N/A - NOT AVAILABLE

USA.gov is the U.S. government's official web portal to all federal, state and local government web resources and services.